Location: *
(38.9555°S, 57.3572°E)
Time: 01:41:28
(UTC+00:00)

SL-08 ROCKET BODY - Pass Details

Date: 15 July 2020
Orbit: 897 x 962 km, 82.9° (Epoch: 06 August)

Event Time Altitude Azimuth Distance (km) Brightness Sun altitude
Rises 14:30:52 0° 183° (S) 3,552 7.3 -15.9°
Reaches altitude 10° 14:33:25 10° 178° (S) 2,605 6.6 -16.4°
Maximum altitude 14:39:12 54° 100° (E) 1,096 4.4 -17.5°
Drops below altitude 10° 14:44:57 10° 23° (NNE) 2,591 6.6 -18.6°
Sets 14:47:28 0° 18° (NNE) 3,532 7.4 -19.0°
